TUB1022 ULLI-UUBW

Flight info

Callsign TUB1022
Flight time N/A
Altitude 37000
Route SUGIN T873 NIRGI T73 IDLIT DCT ESOLO ESOLO2B
Aircraft B752/M-SDE2E3FGHIJ3J4J7RWXY/LB1

Departure

Time N/A
Airport Pulkovo Airport (ULLI)

Arrival

Time 2026-04-25 09:53
Airport Zhukovsky International Airport (UUBW)
Time Latitude Longitude Altitude Speed Heading
2026-04-25 09:19 57.44597 35.75231 33639 ft 503 kts 144°
2026-04-25 09:19 57.41861 35.79361 33649 ft 504 kts 144°
2026-04-25 09:20 57.36410 35.87571 33646 ft 504 kts 144°
2026-04-25 09:20 57.31021 35.95654 33640 ft 503 kts 144°
2026-04-25 09:21 57.25569 36.03800 33655 ft 504 kts 143°
2026-04-25 09:21 57.20123 36.11907 33653 ft 504 kts 143°
2026-04-25 09:22 57.14701 36.19946 33671 ft 504 kts 144°
2026-04-25 09:22 57.09278 36.27954 33664 ft 500 kts 144°
2026-04-25 09:22 57.06601 36.31901 33659 ft 483 kts 144°
2026-04-25 09:23 57.03981 36.35754 33661 ft 469 kts 144°
2026-04-25 09:23 56.98887 36.43128 33673 ft 471 kts 144°
2026-04-25 09:24 56.93716 36.50706 33662 ft 478 kts 139°
2026-04-25 09:24 56.89569 36.60106 33667 ft 481 kts 120°
2026-04-25 09:25 56.87135 36.71497 33657 ft 483 kts 105°
2026-04-25 09:25 56.85372 36.83125 33640 ft 465 kts 105°
2026-04-25 09:26 56.83425 36.94202 33652 ft 460 kts 117°
2026-04-25 09:26 56.79816 37.03814 33610 ft 465 kts 136°
2026-04-25 09:26 56.77429 37.07777 33028 ft 473 kts 146°
2026-04-25 09:27 56.74693 37.11022 32441 ft 466 kts 156°
2026-04-25 09:27 56.71795 37.13600 31754 ft 462 kts 159°
2026-04-25 09:27 56.68850 37.16113 31090 ft 461 kts 159°
2026-04-25 09:27 56.65912 37.18587 30425 ft 459 kts 159°
2026-04-25 09:28 56.63019 37.20995 29783 ft 457 kts 159°
2026-04-25 09:28 56.60181 37.23344 29179 ft 454 kts 158°
2026-04-25 09:28 56.57430 37.26076 28609 ft 454 kts 148°
2026-04-25 09:28 56.54966 37.29577 28044 ft 453 kts 138°
2026-04-25 09:29 56.52839 37.33814 27474 ft 451 kts 127°
2026-04-25 09:29 56.51171 37.38500 26934 ft 447 kts 118°
2026-04-25 09:29 56.49709 37.43453 26406 ft 443 kts 117°
2026-04-25 09:29 56.48219 37.48217 25888 ft 439 kts 125°
2026-04-25 09:30 56.46236 37.52330 25398 ft 431 kts 140°
2026-04-25 09:30 56.43816 37.55413 24918 ft 418 kts 154°
2026-04-25 09:30 56.41268 37.57745 24346 ft 415 kts 156°
2026-04-25 09:30 56.38681 37.60074 23696 ft 417 kts 157°
2026-04-25 09:31 56.36030 37.61908 23074 ft 410 kts 169°
2026-04-25 09:31 56.33273 37.62790 22490 ft 400 kts 179°
2026-04-25 09:31 56.30527 37.63110 21917 ft 391 kts 183°
2026-04-25 09:31 56.27862 37.63162 21395 ft 385 kts 185°
2026-04-25 09:32 56.25189 37.63075 20888 ft 380 kts 186°
2026-04-25 09:32 56.22542 37.62903 20402 ft 379 kts 187°
2026-04-25 09:32 56.19878 37.62680 19925 ft 378 kts 187°
2026-04-25 09:32 56.17268 37.62438 19456 ft 375 kts 187°
2026-04-25 09:33 56.14703 37.62217 19007 ft 372 kts 183°
2026-04-25 09:33 56.12139 37.62798 18586 ft 375 kts 166°
2026-04-25 09:33 56.09713 37.64478 18449 ft 371 kts 159°
2026-04-25 09:33 56.07345 37.66309 18439 ft 376 kts 160°
2026-04-25 09:34 56.04869 37.68239 18441 ft 381 kts 159°
2026-04-25 09:34 56.02443 37.70152 18386 ft 382 kts 159°
2026-04-25 09:34 56.00011 37.72078 17820 ft 388 kts 159°
2026-04-25 09:34 55.97545 37.74036 17175 ft 387 kts 158°
2026-04-25 09:35 55.95127 37.75971 16662 ft 384 kts 155°
2026-04-25 09:35 55.92908 37.78422 16670 ft 363 kts 146°
2026-04-25 09:35 55.90859 37.80987 16671 ft 359 kts 147°
2026-04-25 09:35 55.88793 37.83565 16682 ft 371 kts 145°
2026-04-25 09:36 55.86903 37.86601 16668 ft 359 kts 128°
2026-04-25 09:36 55.85611 37.90240 16682 ft 347 kts 115°
2026-04-25 09:36 55.84541 37.94145 16676 ft 350 kts 114°
2026-04-25 09:36 55.83485 37.98031 16676 ft 353 kts 114°
2026-04-25 09:37 55.82442 38.01931 16671 ft 351 kts 114°
2026-04-25 09:37 55.81395 38.05876 16671 ft 351 kts 113°
2026-04-25 09:37 55.80227 38.09628 16684 ft 352 kts 127°
2026-04-25 09:37 55.78522 38.12711 16698 ft 352 kts 146°
2026-04-25 09:38 55.76406 38.14820 16697 ft 351 kts 159°
2026-04-25 09:38 55.74171 38.16524 16678 ft 350 kts 159°
2026-04-25 09:38 55.71940 38.18208 16674 ft 348 kts 159°
2026-04-25 09:38 55.69716 38.19850 16680 ft 348 kts 160°
2026-04-25 09:39 55.67463 38.21496 16687 ft 349 kts 160°
2026-04-25 09:39 55.65241 38.23146 16683 ft 349 kts 155°
2026-04-25 09:39 55.63094 38.25249 16489 ft 356 kts 151°
2026-04-25 09:40 55.58590 38.28133 15877 ft 337 kts 182°
2026-04-25 09:40 55.56298 38.27797 15359 ft 334 kts 199°
2026-04-25 09:40 55.54182 38.26362 15067 ft 319 kts 207°
2026-04-25 09:40 55.52051 38.25408 15058 ft 312 kts 186°
2026-04-25 09:41 55.49914 38.25750 14769 ft 313 kts 170°
2026-04-25 09:41 55.47825 38.26775 14370 ft 313 kts 164°
2026-04-25 09:41 55.45781 38.28022 13990 ft 312 kts 162°
2026-04-25 09:41 55.43775 38.29394 13650 ft 309 kts 160°
2026-04-25 09:42 55.41774 38.30849 13291 ft 307 kts 159°
2026-04-25 09:42 55.39831 38.32304 12915 ft 306 kts 159°
2026-04-25 09:42 55.37889 38.33784 12556 ft 304 kts 159°
2026-04-25 09:42 55.35978 38.35252 12209 ft 301 kts 159°
2026-04-25 09:43 55.34051 38.36736 11842 ft 299 kts 159°
2026-04-25 09:43 55.32169 38.38203 11488 ft 298 kts 155°
2026-04-25 09:43 55.30516 38.40354 11084 ft 300 kts 134°
2026-04-25 09:43 55.29121 38.43044 10766 ft 297 kts 133°
2026-04-25 09:44 55.27821 38.45786 10557 ft 288 kts 118°
2026-04-25 09:44 55.27198 38.49009 10274 ft 281 kts 90°
2026-04-25 09:44 55.27461 38.52296 9858 ft 271 kts 59°
2026-04-25 09:44 55.28476 38.54990 9509 ft 260 kts 43°
2026-04-25 09:45 55.29703 38.57236 9175 ft 253 kts 30°
2026-04-25 09:45 55.31244 38.58418 8766 ft 239 kts 359°
2026-04-25 09:45 55.32824 38.58016 8373 ft 229 kts 329°
2026-04-25 09:45 55.34055 38.56324 7998 ft 224 kts 313°
2026-04-25 09:46 55.35142 38.54399 7668 ft 223 kts 313°
2026-04-25 09:46 55.36214 38.52457 7112 ft 225 kts 312°
2026-04-25 09:46 55.37222 38.50564 6507 ft 226 kts 311°
2026-04-25 09:46 55.38271 38.48569 5960 ft 224 kts 311°
2026-04-25 09:47 55.39299 38.46529 5299 ft 219 kts 310°
2026-04-25 09:47 55.40284 38.44533 4397 ft 216 kts 310°
2026-04-25 09:47 55.41215 38.42679 4195 ft 192 kts 310°
2026-04-25 09:47 55.42056 38.41011 3934 ft 175 kts 310°
2026-04-25 09:48 55.42831 38.39481 3706 ft 157 kts 310°
2026-04-25 09:48 55.43516 38.38133 3465 ft 141 kts 310°
2026-04-25 09:48 55.44149 38.36889 3273 ft 137 kts 311°
2026-04-25 09:48 55.44802 38.35607 3098 ft 141 kts 310°
2026-04-25 09:49 55.45452 38.34328 2896 ft 140 kts 310°
2026-04-25 09:49 55.46096 38.33065 2690 ft 137 kts 311°
2026-04-25 09:49 55.46723 38.31836 2501 ft 136 kts 311°
2026-04-25 09:49 55.47351 38.30603 2306 ft 134 kts 313°
2026-04-25 09:50 55.47970 38.29393 2110 ft 131 kts 310°
2026-04-25 09:50 55.48553 38.28186 1896 ft 130 kts 310°
2026-04-25 09:50 55.49160 38.27041 1715 ft 127 kts 312°
2026-04-25 09:50 55.49780 38.25908 1535 ft 126 kts 311°
2026-04-25 09:51 55.50366 38.24743 1387 ft 131 kts 309°
2026-04-25 09:51 55.50970 38.23523 1261 ft 137 kts 311°
2026-04-25 09:51 55.51630 38.22246 1090 ft 144 kts 309°
2026-04-25 09:51 55.52296 38.20950 885 ft 143 kts 309°
2026-04-25 09:52 55.52956 38.19613 637 ft 144 kts 310°
2026-04-25 09:52 55.53608 38.18317 429 ft 138 kts 310°
2026-04-25 09:52 55.54200 38.17131 373 ft 109 kts 312°
2026-04-25 09:52 55.54572 38.16398 373 ft 62 kts 311°
2026-04-25 09:53 55.54841 38.15866 372 ft 55 kts 310°
2026-04-25 09:53 55.55078 38.15391 370 ft 47 kts 311°
2026-04-25 09:53 55.55281 38.14984 370 ft 41 kts 311°
2026-04-25 09:53 55.55458 38.14634 374 ft 34 kts 311°
2026-04-25 09:54 55.55588 38.14356 379 ft 18 kts 287°
2026-04-25 09:54 55.55556 38.14251 379 ft 4 kts 223°
2026-04-25 09:54 55.55536 38.14218 379 ft 3 kts 223°
2026-04-25 09:54 55.55517 38.14186 379 ft 3 kts 223°
2026-04-25 09:55 55.55497 38.14153 378 ft 3 kts 224°
2026-04-25 09:55 55.55482 38.14125 379 ft 1 kts 231°
2026-04-25 09:55 55.55477 38.14103 379 ft 3 kts 256°
2026-04-25 09:55 55.55479 38.14051 380 ft 4 kts 290°
2026-04-25 09:56 55.55499 38.13996 381 ft 6 kts 306°
2026-04-25 09:56 55.55528 38.13939 382 ft 6 kts 311°
2026-04-25 09:56 55.55549 38.13895 383 ft 6 kts 310°
2026-04-25 09:56 55.55576 38.13841 385 ft 6 kts 310°
2026-04-25 09:57 55.55607 38.13777 387 ft 7 kts 310°
2026-04-25 09:57 55.55642 38.13704 388 ft 9 kts 311°
2026-04-25 09:57 55.55695 38.13600 391 ft 13 kts 311°
2026-04-25 09:57 55.55765 38.13461 395 ft 17 kts 311°
2026-04-25 09:58 55.55855 38.13279 398 ft 21 kts 310°
2026-04-25 09:58 55.55961 38.13068 400 ft 18 kts 311°
2026-04-25 09:58 55.56039 38.12913 400 ft 18 kts 312°
2026-04-25 09:58 55.56095 38.12757 400 ft 15 kts 293°
2026-04-25 09:59 55.56136 38.12644 400 ft 10 kts 310°
2026-04-25 09:59 55.56183 38.12534 400 ft 6 kts 281°
2026-04-25 09:59 55.56158 38.12459 401 ft 7 kts 223°
2026-04-25 09:59 55.56107 38.12375 402 ft 12 kts 221°
2026-04-25 10:00 55.56027 38.12253 403 ft 18 kts 221°
2026-04-25 10:00 55.55945 38.12156 404 ft 11 kts 178°
2026-04-25 10:00 55.55885 38.12179 406 ft 2 kts 160°
2026-04-25 10:00 55.55879 38.12182 406 ft 0 kts 161°